Weather reports worldwide

Advertisment
Prestwick, United Kingdom (3136): temperature & dewpoint: 12.06.2019 03:00:00 - 18.06.2019 03:00:00 (BST)Prestwick, United Kingdom (3136): temperature -20cm & temperature -100cm: 12.06.2019 03:00:00 - 18.06.2019 03:00:00 (BST)Prestwick, United Kingdom (3136): wind speed & gusts: 12.06.2019 03:00:00 - 18.06.2019 03:00:00 (BST)Prestwick, United Kingdom (3136): wind direction: 12.06.2019 03:00:00 - 18.06.2019 03:00:00 (BST)Prestwick, United Kingdom (3136): reduced air pressure: 12.06.2019 03:00:00 - 18.06.2019 03:00:00 (BST)Prestwick, United Kingdom (3136): visibility: 12.06.2019 03:00:00 - 18.06.2019 03:00:00 (BST)Prestwick, United Kingdom (3136): sunshine duration: 12.06.2019 03:00:00 - 18.06.2019 03:00:00 (BST)Prestwick, United Kingdom (3136): precipitation: 12.06.2019 03:00:00 - 18.06.2019 03:00:00 (BST)
Date & Time tt [°C] td [°C] tt -20cm [°C] tt -100cm [°C] ff [km/h] ff [kn] fx [km/h] fx [kn] dd ppp [hPa] vv [km] sd [min] rr [mm]
18.06.2019 03:00:00 11,2 9,0 - - 8 4 - - SSE 1010,4 50 0 0,0
18.06.2019 02:00:00 11,6 9,3 - - 9 5 - - SSE 1010,6 50 0 0,0
18.06.2019 01:00:00 11,9 9,4 - - 11 6 - - S 1010,7 50 - 0,0
18.06.2019 00:00:00 11,8 9,9 - - 9 5 - - S 1010,6 35 0 0,0
17.06.2019 23:00:00 12,7 11,0 - - 11 6 - - S 1010,5 30 0 0,0
17.06.2019 22:00:00 12,8 11,0 - - 16 9 - - SSW 1010,3 26 0 0,4
17.06.2019 21:00:00 13,6 10,7 - - 16 9 - - SSW 1010,0 25 0 0,0
17.06.2019 20:00:00 14,0 10,8 - - 16 9 - - SSW 1009,8 35 0 0,2
17.06.2019 19:00:00 14,1 10,3 - - 21 11 - - SW 1009,6 28 0 0,0
17.06.2019 18:00:00 14,7 10,4 - - 22 12 - - SSW 1009,4 50 0 0,0
17.06.2019 17:00:00 14,2 11,0 - - 24 13 - - SSW 1009,2 35 0 1,2
17.06.2019 16:00:00 13,7 11,2 - - 28 15 68 37 S 1009,1 28 0 0,2
17.06.2019 15:00:00 16,3 8,7 - - 41 22 68 37 SSW 1008,5 30 6 0,0
17.06.2019 14:00:00 17,1 9,0 - - 41 22 57 31 SSW 1008,1 35 6 0,0
17.06.2019 13:00:00 17,0 8,9 - - 35 19 50 27 S 1008,1 25 18 0,0
17.06.2019 12:00:00 16,5 8,7 - - 39 21 52 28 S 1008,2 25 30 0,0
17.06.2019 11:00:00 15,3 9,4 - - 34 18 50 27 S 1008,0 30 12 0,0
17.06.2019 10:00:00 15,0 9,5 14,2 12,7 26 14 - - SSW 1008,1 28 18 0,0
17.06.2019 09:00:00 13,4 9,4 - - 26 14 - - SSW 1008,3 25 0 0,0
17.06.2019 08:00:00 12,8 9,4 - - 24 13 - - S 1008,3 35 0 0,0
17.06.2019 07:00:00 12,0 9,2 - - 18 10 - - S 1008,0 40 0 0,0
17.06.2019 06:00:00 11,6 9,1 - - 21 11 - - S 1007,7 30 0 0,0
17.06.2019 05:00:00 11,3 8,7 - - 22 12 - - SSW 1007,2 50 0 0,0
17.06.2019 04:00:00 11,4 8,7 - - 29 16 50 27 SSW 1006,9 45 0 0,0
17.06.2019 03:00:00 11,9 9,4 - - 28 15 46 25 SSW 1006,6 50 0 0,0
17.06.2019 02:00:00 12,3 9,7 - - 26 14 50 27 SSW 1006,3 50 0 0,0
17.06.2019 01:00:00 12,6 10,1 - - 34 18 46 25 SSW 1005,8 50 - 0,0
17.06.2019 00:00:00 13,4 11,2 - - 29 16 - - S 1005,0 25 0 0,0
16.06.2019 23:00:00 12,0 10,4 - - 16 9 - - ESE 1004,8 16 0 1,2
16.06.2019 22:00:00 12,9 9,6 - - 5 3 - - E 1005,9 45 0 0,0
16.06.2019 21:00:00 14,0 8,9 - - 16 9 - - SSE 1006,8 45 24 0,0
16.06.2019 20:00:00 14,4 8,9 - - 22 12 - - SSE 1007,4 45 24 0,0
16.06.2019 19:00:00 14,3 8,5 - - 28 15 - - SSE 1007,7 50 36 0,0
16.06.2019 18:00:00 15,8 8,3 - - 24 13 - - SSE 1008,1 35 30 0,0
16.06.2019 17:00:00 16,1 7,4 - - 26 14 - - SSE 1008,5 30 24 0,0
16.06.2019 16:00:00 16,7 6,5 - - 26 14 - - S 1008,8 50 30 0,0
16.06.2019 15:00:00 13,7 9,3 - - 11 6 - - W 1009,1 35 0 0,0
16.06.2019 14:00:00 13,8 8,3 - - 15 8 - - WSW 1009,2 40 0 0,0
16.06.2019 13:00:00 13,0 8,5 - - 18 10 - - WSW 1009,1 50 0 0,0
16.06.2019 12:00:00 12,5 9,3 - - 15 8 - - WSW 1009,2 23 6 0,0
16.06.2019 11:00:00 13,2 7,9 - - 15 8 - - WSW 1009,0 40 12 0,0
16.06.2019 10:00:00 13,1 8,2 14,0 12,7 15 8 - - WSW 1009,0 35 12 0,0
16.06.2019 09:00:00 13,7 8,2 - - 15 8 - - S 1009,0 50 18 0,0
16.06.2019 08:00:00 11,5 8,7 - - 13 7 - - S 1008,9 45 0 0,0
16.06.2019 07:00:00 11,2 8,7 - - 13 7 - - SSE 1008,4 30 0 0,0
16.06.2019 06:00:00 10,7 8,2 - - 13 7 - - SSE 1008,1 40 0 0,0
16.06.2019 05:00:00 10,0 7,7 - - 15 8 - - SSE 1007,9 40 0 0,0
16.06.2019 04:00:00 10,2 7,9 - - 13 7 - - SSE 1007,9 45 0 0,0
16.06.2019 03:00:00 10,4 8,2 - - 11 6 - - SE 1008,1 45 0 0,0
16.06.2019 02:00:00 10,9 7,6 - - 9 5 - - SE 1008,6 40 0 0,0
16.06.2019 01:00:00 10,8 7,0 - - 8 4 46 25 SE 1008,7 50 - 0,0
16.06.2019 00:00:00 10,7 7,3 - - 5 3 - - SE 1008,7 50 0 0,0
15.06.2019 23:00:00 11,6 7,5 - - 11 6 - - SSE 1008,6 45 0 0,0
15.06.2019 22:00:00 12,4 7,5 - - 13 7 - - S 1008,3 45 0 0,0
15.06.2019 21:00:00 13,1 8,3 - - 21 11 - - S 1007,9 45 0 0,0
15.06.2019 20:00:00 12,8 8,5 - - 22 12 - - S 1007,6 50 0 0,0
15.06.2019 19:00:00 13,0 8,8 - - 26 14 - - SSE 1007,7 45 0 0,0
15.06.2019 18:00:00 13,3 9,3 - - 29 16 - - SSE 1007,4 45 0 0,0
15.06.2019 17:00:00 13,6 8,8 - - 24 13 48 26 SSE 1007,1 27 18 0,0
15.06.2019 16:00:00 14,4 8,5 - - 24 13 46 25 SSE 1007,1 40 6 0,0
15.06.2019 15:00:00 15,5 7,0 - - 31 17 48 26 SSE 1006,9 45 24 0,0
15.06.2019 14:00:00 15,8 9,4 - - 18 10 - - SE 1006,7 35 6 0,0
15.06.2019 13:00:00 14,3 9,9 - - 15 8 - - ESE 1007,2 45 0 0,0
15.06.2019 12:00:00 14,7 8,9 - - 16 9 - - SE 1006,9 40 0 0,0
15.06.2019 11:00:00 13,9 9,5 - - 8 4 - - ESE 1006,9 35 0 0,0
15.06.2019 10:00:00 13,4 9,1 14,0 12,7 5 3 - - E 1007,1 35 0 0,0
15.06.2019 09:00:00 11,7 9,5 - - 9 5 - - E 1007,2 30 0 0,2
15.06.2019 08:00:00 11,5 8,8 - - 9 5 - - ESE 1007,2 45 0 0,0
15.06.2019 07:00:00 11,4 8,7 - - 8 4 - - E 1007,0 45 0 0,0
15.06.2019 06:00:00 11,4 8,7 - - 11 6 - - SE 1006,9 40 0 0,0
15.06.2019 05:00:00 11,4 8,8 - - 15 8 - - SE 1006,9 40 0 0,0
15.06.2019 04:00:00 11,5 9,0 - - 13 7 - - SSE 1006,9 40 0 0,0
15.06.2019 03:00:00 11,7 8,7 - - 11 6 - - ESE 1006,8 30 0 0,0
15.06.2019 02:00:00 11,9 8,2 - - 21 11 - - ESE 1006,9 40 0 0,0
15.06.2019 01:00:00 12,1 7,9 - - 16 9 - - SE 1006,7 40 - 0,0
15.06.2019 00:00:00 11,8 8,3 - - 18 10 - - SE 1007,0 21 0 0,0
14.06.2019 23:00:00 11,8 8,4 - - 15 8 - - SE 1007,0 50 0 0,0
14.06.2019 22:00:00 12,0 7,9 - - 13 7 - - SE 1006,8 40 0 0,0
14.06.2019 21:00:00 12,6 7,2 - - 16 9 - - SSE 1006,5 50 0 0,0
14.06.2019 20:00:00 13,1 6,6 - - 18 10 - - SSE 1006,3 35 0 0,0
14.06.2019 19:00:00 13,3 7,9 - - 16 9 - - SE 1006,3 40 0 0,0
14.06.2019 18:00:00 13,6 5,9 - - 24 13 - - S 1006,0 40 0 0,0
14.06.2019 17:00:00 13,9 6,5 - - 13 7 - - W 1005,4 40 6 0,0
14.06.2019 16:00:00 15,0 4,5 - - 21 11 - - SSW 1005,1 50 24 0,0
14.06.2019 15:00:00 13,1 5,5 - - 21 11 - - WSW 1005,1 35 24 0,0
14.06.2019 14:00:00 13,4 6,0 - - 24 13 - - WSW 1005,0 45 54 0,0
14.06.2019 13:00:00 12,2 5,9 - - 22 12 - - WSW 1004,8 45 48 0,0
14.06.2019 12:00:00 11,5 6,2 - - 16 9 - - WSW 1004,5 35 24 0,0
14.06.2019 11:00:00 10,9 5,6 - - 21 11 - - WSW 1004,3 35 6 0,0
14.06.2019 10:00:00 12,1 5,1 14,0 12,7 16 9 - - SSW 1003,9 45 24 0,0
14.06.2019 09:00:00 10,9 6,2 - - 21 11 - - SSW 1003,6 50 60 0,0
14.06.2019 08:00:00 9,8 6,8 - - 18 10 - - S 1003,3 50 42 0,0
14.06.2019 07:00:00 8,4 6,7 - - 22 12 - - S 1003,1 45 0 0,2
14.06.2019 06:00:00 7,9 6,7 - - 21 11 - - S 1002,6 10 0 0,4
14.06.2019 05:00:00 7,9 6,8 - - 15 8 - - S 1002,2 40 0 1,0
14.06.2019 04:00:00 7,8 6,7 - - 18 10 - - S 1002,0 22 0 0,4
14.06.2019 03:00:00 8,0 6,7 - - 15 8 - - S 1002,1 12 0 0,4
14.06.2019 02:00:00 8,2 6,5 - - 13 7 - - S 1002,0 50 0 0,0
14.06.2019 01:00:00 8,8 6,6 - - 13 7 - - S 1002,3 45 - 0,0
14.06.2019 00:00:00 9,7 6,9 - - 15 8 - - S 1002,3 45 0 0,0
13.06.2019 23:00:00 9,9 7,0 - - 9 5 - - SSE 1002,3 45 0 0,0
13.06.2019 22:00:00 10,4 7,1 - - 9 5 - - S 1002,1 50 0 0,0
13.06.2019 21:00:00 10,6 6,8 - - 8 4 - - SSE 1001,9 50 0 0,0
13.06.2019 20:00:00 10,9 6,5 - - 13 7 - - S 1001,9 50 0 0,0
13.06.2019 19:00:00 11,4 5,1 - - 13 7 - - SW 1002,0 50 0 0,0
13.06.2019 18:00:00 11,2 6,1 - - 13 7 - - WSW 1002,3 50 0 0,0
13.06.2019 17:00:00 11,2 6,3 - - 15 8 - - W 1002,7 50 0 0,0
13.06.2019 16:00:00 11,6 5,8 - - 13 7 - - WSW 1003,0 45 0 0,0
13.06.2019 15:00:00 11,3 5,4 - - 13 7 - - WSW 1003,5 50 0 0,0
13.06.2019 14:00:00 12,0 5,4 - - 5 3 - - WSW 1003,8 45 0 0,0
13.06.2019 13:00:00 11,8 5,0 - - 4 2 - - E 1004,4 45 0 0,0
13.06.2019 12:00:00 11,7 4,9 - - 11 6 - - ENE 1005,0 45 6 0,0
13.06.2019 11:00:00 12,0 5,5 - - 9 5 - - NNE 1005,3 50 0 0,0
13.06.2019 10:00:00 11,0 4,8 14,2 12,7 11 6 - - N 1006,0 50 0 0,0
13.06.2019 09:00:00 10,8 5,0 - - 8 4 - - NE 1006,7 45 0 0,0
13.06.2019 08:00:00 10,8 5,1 - - 13 7 - - NNE 1007,1 50 0 0,0
13.06.2019 07:00:00 10,4 6,1 - - 8 4 - - N 1007,7 50 0 0,0
13.06.2019 06:00:00 10,1 6,0 - - 9 5 - - N 1008,4 50 0 0,0
13.06.2019 05:00:00 10,4 5,8 - - 11 6 - - NNE 1008,7 50 0 0,0
13.06.2019 04:00:00 10,4 6,5 - - 5 3 - - N 1008,9 50 0 0,0
13.06.2019 03:00:00 10,9 6,2 - - 15 8 - - NNE 1009,3 50 0 0,0
13.06.2019 02:00:00 10,8 6,6 - - 13 7 - - NE 1010,3 50 0 0,0
13.06.2019 01:00:00 11,1 6,9 - - 15 8 - - NNE 1010,9 50 - 0,0
13.06.2019 00:00:00 11,3 7,9 - - 15 8 - - NNE 1011,7 50 0 0,0
12.06.2019 23:00:00 11,6 8,2 - - 18 10 - - NNE 1012,4 50 0 0,0
12.06.2019 22:00:00 12,0 8,3 - - 18 10 - - NE 1012,9 50 0 0,0
12.06.2019 21:00:00 12,0 8,6 - - 16 9 - - NE 1013,1 50 0 0,0
12.06.2019 20:00:00 12,6 8,5 - - 13 7 - - NNE 1013,1 50 0 0,0
12.06.2019 19:00:00 12,7 8,3 - - 18 10 - - NE 1013,4 50 0 0,0
12.06.2019 18:00:00 13,4 8,0 - - 21 11 - - NE 1013,7 50 0 0,0
12.06.2019 17:00:00 13,6 7,8 - - 18 10 - - NNE 1014,1 50 0 0,0
12.06.2019 16:00:00 13,8 7,4 - - 24 13 - - NE 1014,5 50 0 0,0
12.06.2019 15:00:00 14,3 6,9 - - 24 13 - - NNE 1014,9 45 0 0,0
12.06.2019 14:00:00 14,2 6,8 - - 24 13 - - NE 1015,3 40 0 0,0
12.06.2019 13:00:00 15,0 6,9 - - 22 12 - - NE 1015,6 45 0 0,0
12.06.2019 12:00:00 15,2 6,5 - - 21 11 - - NE 1016,1 50 0 0,0
12.06.2019 11:00:00 14,5 5,9 - - 15 8 - - NNE 1016,9 50 0 0,0
12.06.2019 10:00:00 12,9 6,2 14,2 12,7 9 5 - - NNE 1017,1 45 6 0,0
12.06.2019 09:00:00 12,2 6,7 - - 8 4 - - N 1017,5 45 18 0,0
12.06.2019 08:00:00 9,9 6,3 - - 8 4 - - NNW 1017,9 45 0 0,0
12.06.2019 07:00:00 8,6 6,3 - - 4 2 - - N 1018,4 50 0 0,0
12.06.2019 06:00:00 8,1 5,9 - - 5 3 - - N 1018,4 50 0 0,0
12.06.2019 05:00:00 8,1 5,2 - - 8 4 - - NNE 1018,5 50 0 0,0
12.06.2019 04:00:00 9,1 5,7 - - 9 5 - - N 1018,8 50 0 0,0
12.06.2019 03:00:00 10,1 6,6 - - 9 5 - - NE 1019,7 50 0 0,0

tt = temperature
td = dewpoint
tt -20cm = temperature -20cm
tt -100cm = temperature -100cm
ff = wind speed
fx = gusts
dd = wind direction
ppp = reduced air pressure
vv = visibility
sd = sunshine duration
rr = precipitation

Next stations